Regional Weather Roundup
Issued by NWS

Home | Current Version | Previous Version | Graphics & Text | Print | Product List | Glossary On
Versions: 1 2 3 4 5 6 7 8 9 10 11 12 13 14 15 16 17 18 19 20 21 22 23 24 25 26 27
000
ASUS45 KCYS 261810
RWRWY

WYOMING REGIONAL WEATHER ROUNDUP
NATIONAL WEATHER SERVICE CHEYENNE WY
1200 PM MDT THU MAY 26 2016

NOTE:  "FAIR" INDICATES FEW OR NO CLOUDS BELOW 12,000 FEET
WITH NO SIGNIFICANT WEATHER AND/OR OBSTRUCTIONS TO VISIBILITY.

WYZ001-261900-
YELLOWSTONE NATIONAL PARK

CITY           SKY/WX    TMP DP  RH WIND       PRES   REMARKS
LK YELLOWSTONE   N/A     44  33  65 VRB3      30.10F
6HR MIN TEMP:  31; 6HR MAX TEMP:  45;

W YELLOWSTONE  NOT AVBL

$$
WYZ002>013-054>058-071-098>099-261900-
NORTHERN WYOMING

CITY           SKY/WX    TMP DP  RH WIND       PRES   REMARKS
JACKSON        PTSUNNY   54  37  54 CALM      30.05F
CODY           FAIR      55  41  58 E6        29.97F
GREYBULL       FAIR      61  44  53 VRB3      29.95F
6HR MIN TEMP:  48; 6HR MAX TEMP:  61; 6HR PCP:  0.04;

WORLAND        FAIR      61  43  51 VRB6      29.97F
6HR MIN TEMP:  42; 6HR MAX TEMP:  62;

SHERIDAN       FAIR      59  45  59 NW6       29.94F
6HR MIN TEMP:  44; 6HR MAX TEMP:  59; 6HR PCP:  0.02;

BUFFALO          N/A    N/A N/A N/A MISG      29.98S
GILLETTE       LGT RAIN  55  45  68 W6        29.94S
6HR MIN TEMP:  43; 6HR MAX TEMP:  62; 6HR PCP:  0.02;

HULETT         MOCLDY    61  37  41 W10G17    29.94S
NEWCASTLE      FAIR      63  30  29 NW16G22   29.95S

$$
WYZ014>020-022>026-101>103-261900-
CENTRAL WYOMING

CITY           SKY/WX    TMP DP  RH WIND       PRES   REMARKS
BIG PINEY      FAIR      57  31  37 N13G23    30.06S
6HR MIN TEMP:  30; 6HR MAX TEMP:  57;

PINEDALE       FAIR      54  27  35 N6        30.05S
DUBOIS         FAIR      55  23  28 NW7       30.02F
LANDER         FAIR      60  35  39 VRB6      29.98F
6HR MIN TEMP:  35; 6HR MAX TEMP:  61;

RIVERTON       FAIR      62  35  36 MISG      30.00F
6HR MIN TEMP:  44; 6HR MAX TEMP:  62;

CASPER         FAIR      60  36  40 N5        29.98S
6HR MIN TEMP:  38; 6HR MAX TEMP:  61;

DOUGLAS          N/A    N/A N/A N/A MISG      29.96F

$$
WYZ021-027>030-104>119-261900-
SOUTHERN WYOMING

CITY           SKY/WX    TMP DP  RH WIND       PRES   REMARKS
EVANSTON       FAIR      53  34  48 N8        30.06F
6HR MIN TEMP:  33; 6HR MAX TEMP:  55;

KEMMERER         N/A     54  32  43 SW6       30.07F
FORT BRIDGER   CLEAR     54  36  50 N6        30.09F
ROCK SPRINGS   FAIR      54  32  43 NW10      30.04F
6HR MIN TEMP:  34; 6HR MAX TEMP:  55;

DIXON          FAIR      61  34  36 N8        30.01F
RAWLINS        FAIR      58  32  37 N5        30.01F
6HR MIN TEMP:  32; 6HR MAX TEMP:  58;

SARATOGA       FAIR      54  32  43 W10G17    30.02F
LARAMIE        FAIR      54  28  36 N5        29.99F
6HR MIN TEMP:  34; 6HR MAX TEMP:  58;

CHEYENNE       PTSUNNY   62  36  37 SE15G21   29.96F
6HR MIN TEMP:  39; 6HR MAX TEMP:  63;

TORRINGTON     FAIR      69  38  32 N6        29.91F
6HR MIN TEMP:  39; 6HR MAX TEMP:  70;

PINE BLUFFS    MOCLDY    61  41  48 E8        29.97S

$$




USA.gov is the U.S. government's official web portal to all federal, state and local government web resources and services.